Location: Napa Junction
(38.1874°N, 122.2508°W)
Time: 23:17:36
(UTC+00:00)

CENTAUR R/B - Pass Details

Date: 11 December 2024
Orbit: 654 x 1528 km, 63.4° (Epoch: 19 January)

Event Time Altitude Azimuth Distance (km) Brightness Sun altitude
Rises 12:46:26 0° 178° (S) 3,106 5.3 -28.5°
Reaches altitude 10° 12:48:55 10° 165° (SSE) 2,273 4.7 -28.1°
Maximum altitude 12:53:15 27° 108° (ESE) 1,565 4.2 -27.2°
Drops below altitude 10° 12:58:17 10° 53° (NE) 2,696 5.3 -26.2°
Sets 13:01:30 0° 43° (NE) 3,808 6.0 -25.6°
